User: anonymous   Login
Location: Brno
(49.2000°N, 16.6330°E)
Time: 00:29:41
(UTC+01:00)
Language:

ISS - Orbit

View from above orbital plane
View from above orbital plane
View from above satellite
View from above satellite

Ground track
Ground track

The orbit data is extracted from the following two-line orbital elements,

1 25544U 98067A   22336.67294800  .00012597  00000-0  23073-3 0  9994
2 25544  51.6436 221.9239 0004534 116.6109 350.7827 15.49697482371317
Epoch (UTC): 02 December 2022 16:09:02
Eccentricity: 0.0004534
inclination: 51.6436°
perigee height: 414 km
apogee height: 420 km
right ascension of ascending node: 221.9239°
argument of perigee: 116.6109°
revolutions per day: 15.49697482
mean anomaly at epoch: 350.7827°
orbit number at epoch: 37131

The dashed part of the orbit path shows where the satellite is in the earth's shadow,  

DLR